Location: Charleston
(38.3500°N, 81.6330°W)
Time: 23:12:13
(UTC-04:00)

Daily predictions for brighter satellites

Satellite Brightness Start Highest point End
(mag) Time Altitude Azimuth Time Altitude Azimuth Time Altitude Azimuth
ATLAS CENTAUR R/B 3.3 19:25:39 10° SSW 19:29:55 78° SE 19:43:07 10° NE
USA 215 4.1 19:26:33 10° ENE 19:32:08 30° SE 19:37:41 10° S
Cosmos 1484 Rocket 2.7 19:30:44 10° SSE 19:34:33 70° ENE 19:38:28 10° N
Cosmos 724 4.4 19:30:39 10° SSW 19:36:28 65° ESE 19:42:29 10° NE
SAR-Lupe-4 4.0 19:33:43 10° SE 19:37:05 41° ENE 19:40:28 10° N
OAO 3 Rocket 3.6 19:37:19 10° W 19:41:57 57° S 19:46:39 10° ESE
Cosmos 1758 3.7 19:39:23 10° SSE 19:43:14 43° E 19:47:08 10° NNE
Cosmos 1464 Rocket 4.0 19:37:50 10° S 19:44:02 71° E 19:50:11 10° NNE
Cosmos 2034 Rocket 4.2 19:38:14 10° SSE 19:44:16 52° E 19:50:23 10° NNE
SL-16 R/B 3.2 19:42:09 10° SW 19:47:39 51° WNW 19:53:13 10° NNE
Cosmos 1378 3.4 19:46:08 10° NNW 19:49:51 73° W 19:53:34 10° S
Cosmos 1408 Rocket 3.5 19:46:13 10° N 19:50:32 61° E 19:54:47 10° SSE
SKYMED 2 4.2 19:46:58 10° N 19:51:16 63° WNW 19:55:32 10° SSW
Cosmos 1766 4.2 19:51:48 10° SSW 19:55:40 53° W 19:59:36 10° N
Meteor 1-21 Rocket 4.4 19:50:45 10° N 19:56:07 49° ENE 20:01:27 10° SSE
Spot 1 4.5 19:55:05 10° SE 19:59:33 46° ENE 20:03:48 10° N
Helios 1A 3.7 19:56:15 10° SE 20:00:01 33° ENE 20:03:49 10° N
Meteor 1-28 Rocket 3.2 20:05:00 10° N 20:08:43 84° WNW 20:12:25 10° SSW
Meteor 1-29 3.5 20:07:07 10° NNE 20:10:23 36° E 20:13:38 10° SSE
GPS 2-04 Rocket1 2.8 20:10:01 10° WSW 20:13:21 46° S 20:15:05 24° ESE
NOAA 12 4.1 20:10:32 10° SSE 20:15:47 85° WSW 20:21:07 10° NNW
H-2A R/B 3.9 20:17:05 22° E 20:17:27 23° ENE 20:20:31 10° NNE
ASTEX 1 3.8 20:14:04 10° NNE 20:18:36 37° E 20:23:06 10° SSE
Cosmos 1943 Rocket 3.7 20:16:41 10° NNE 20:20:13 17° NE 20:21:11 16° ENE
Resurs 1-3 3.7 20:16:22 10° SSE 20:20:37 51° ENE 20:24:53 10° N
Cosmos 1805 3.8 20:17:24 10° SSW 20:21:17 60° W 20:25:12 10° N
Cosmos 1743 Rocket 3.5 20:16:57 10° N 20:21:22 63° E 20:25:41 10° SSE
Cosmos 1452 Rocket 4.0 20:16:13 10° NNW 20:21:24 62° WSW 20:26:33 10° S
ALOS 2.7 20:20:14 16° SE 20:23:34 40° ENE 20:27:55 10° N
Cosmos 2251 Rocket 4.3 20:21:15 10° SSE 20:25:33 27° E 20:29:52 10° NE
Cosmos 1943 3.2 20:22:37 10° S 20:28:05 55° ESE 20:33:36 10° NNE
Cosmos 2369 Rocket 2.6 20:22:53 10° N 20:28:15 42° ENE 20:31:02 25° ESE
Resurs 01 Rocket 1.5 20:24:16 10° SSE 20:28:42 83° ENE 20:33:11 10° N
CENTAUR R/B 2.4 20:24:32 10° SSW 20:30:25 68° ESE 20:37:04 10° NE
Helios 1B rocket 2.3 20:26:25 10° NNE 20:30:33 88° ESE 20:34:40 10° SSW
SL-8 R/B 4.2 20:26:01 10° WSW 20:30:43 55° NNW 20:34:18 17° NE
Gbstr 26 Del rocket 3.1 20:28:19 10° SW 20:32:38 86° SE 20:36:27 18° NE
Cosmos 1953 3.8 20:31:13 10° SSW 20:34:58 40° W 20:38:44 10° N
Cosmos 1603 4.5 20:29:50 10° SW 20:35:26 55° WNW 20:41:06 10° NNE
ISS -2.1 20:33:02 10° WSW 20:36:07 39° NNW 20:37:50 21° NNE
BREEZE-M DEB (TANK) 4.3 20:24:39 10° WNW 20:38:44 48° N 20:41:39 24° ENE
Cosmos 1733 3.1 20:35:47 10° S 20:39:37 64° E 20:43:27 10° NNE
Cosmos 1420 Rocket 4.2 20:35:17 10° NNW 20:40:37 77° WSW 20:45:54 10° S
Cosmos 1470 2.7 20:42:53 10° S 20:46:46 81° W 20:50:40 10° N
Cosmos 2279 Rocket 4.4 20:48:02 35° E 20:48:37 36° E 20:54:11 10° NNE
Nadezhda 4 Rocket 4.1 20:42:41 10° N 20:48:57 76° W 20:55:06 10° S
Cosmos 1674 2.7 20:45:13 10° N 20:49:07 80° W 20:51:27 23° S
Spot 2 Rocket 4.1 20:47:43 10° S 20:52:40 57° W 20:57:37 10° NNW
GP-B 3.2 20:48:46 10° NNE 20:52:56 53° E 20:52:56 53° E
Cosmos 1092 Rocket 3.9 20:52:45 10° N 20:58:59 86° W 21:05:07 10° S
ATLAS 5 CENTAUR R/B 4.4 20:58:46 10° W 21:02:09 18° NW 21:05:45 10° N
Cosmos 2151 3.2 20:58:06 10° N 21:01:36 54° NNE 21:01:36 54° NNE
Cosmos 2142 Rocket 4.4 21:00:03 10° S 21:06:24 84° E 21:12:50 10° N
Meteor 2-1 Rocket 4.4 21:08:30 52° ENE 21:08:30 52° ENE 21:13:48 10° NNE
Cosmos 1655 Rocket 4.0 21:03:14 10° N 21:09:21 57° E 21:10:10 53° ESE
Cosmos 158 Rocket 4.2 21:04:52 10° SSW 21:09:42 63° WNW 21:14:33 10° NNE
Cosmos 2026 Rocket 3.9 21:03:54 10° N 21:09:59 64° E 21:11:21 51° SE
Meteor 1-16 Rocket 3.9 21:05:18 10° S 21:10:35 76° E 21:15:55 10° NNE
Cosmos 1634 Rocket 4.0 21:07:11 10° S 21:13:25 81° W 21:19:39 10° N
USA 215 3.4 21:09:20 12° NE 21:15:24 70° NW 21:21:53 10° WSW
Meteor 1-11 4.1 21:19:06 10° N 21:24:55 82° E 21:25:15 78° SE
OAO 3 Rocket 4.4 21:20:52 10° W 21:24:38 32° SSW 21:24:38 32° SSW
ERS-1 Rocket 4.2 21:35:50 31° N 21:35:50 31° N 21:38:32 10° N
Cosmos 1943 Rocket 3.1 21:58:58 10° NNW 22:02:44 43° NW 22:02:44 43° NW
Cosmos 2369 Rocket 4.0 22:07:27 10° NW 22:11:59 25° WSW 22:12:52 24° WSW
CENTAUR R/B 4.5 22:16:39 10° W 22:21:44 25° NW 22:27:20 10° NNE
